Regional Weather Roundup
Issued by NWS

Home | Current Version | Previous Version | Graphics & Text | Print | Product List | Glossary On
Versions: 1 2 3 4 5 6 7 8 9 10 11 12 13 14 15 16 17 18 19 20 21 22 23 24 25 26 27 28 29 30 31 32 33 34 35 36 37 38 39 40 41 42 43 44 45 46 47 48 49 50
232
ASUS43 KLSX 202157
RWRMO

WEATHER SUMMARY FOR MISSOURI
NATIONAL WEATHER SERVICE SPRINGFIELD MO
400 PM CST MON NOV 20 2017

NOTE: "FAIR" INDICATES FEW OR NO CLOUDS BELOW 12,000 FEET WITH NO
       SIGNIFICANT WEATHER AND/OR OBSTRUCTIONS TO VISIBILITY.
       CURRENT SKY AND/OR WEATHER CONDITIONS ARE NOT AVAILABLE FOR
       CHILLICOTHE AND FARMINGTON.

MOZ001>031-035>038-043-044-053-054-202300-
...NORTHERN AND WESTERN MISSOURI...

CITY           SKY/WX    TMP DP  RH WIND       PRES   REMARKS
KANSAS CTY INT MOCLDY    59  29  31 SW17G29   29.74R
LEE`S SUMMIT   CLEAR     59  30  33 SW22G33   29.78R
ST JOSEPH      CLOUDY    60  27  28 SW23G30   29.69S
CHILLICOTHE      N/A     61  28  28 S21G28    29.74F

$$
MOZ066>068-077>081-088>096-101>105-202300-
...SOUTHWEST MISSOURI...

CITY           SKY/WX    TMP DP  RH WIND       PRES   REMARKS
SPRINGFIELD    CLEAR     60  26  27 S21G29    29.89F
JOPLIN         SUNNY     60  28  29 SW22G31   29.89F
BRANSON        CLEAR     59  23  25 S14G20    29.95F

$$
MOZ032>034-039>042-045>050-055>058-069>072-202300-
...CENTRAL MISSOURI...

CITY           SKY/WX    TMP DP  RH WIND       PRES   REMARKS
COLUMBIA       NOT AVBL
JEFFERSON CITY CLEAR     62  26  25 S16G22    29.84F
ROLLA          CLEAR     57  26  30 S17G25    29.89F
SEDALIA        CLEAR     60  30  32 S22G31    29.82F
WARRENSBURG    CLEAR     59  28  31 S14G29    29.79F

$$
MOZ051-052-059>065-202300-
...EAST CENTRAL MISSOURI...

CITY           SKY/WX    TMP DP  RH WIND       PRES   REMARKS
ST LOUIS INTL  PTCLDY    59  25  27 S12       29.90F

$$
MOZ072>076-082>087-097>100-106>115-202300-
...SOUTH CENTRAL AND SOUTHEAST MISSOURI...

CITY           SKY/WX    TMP DP  RH WIND       PRES   REMARKS
CAPE GIRARDEAU CLEAR     50  31  48 S14G21    30.04F
POPLAR BLUFF   CLEAR     53  30  41 S12       30.03F
WEST PLAINS    CLEAR     57  24  28 S9        29.98F

$$



USA.gov is the U.S. government's official web portal to all federal, state and local government web resources and services.